Location: Antoign�
(47.0844°N, 0.1131°W)
Time: 00:07:56
(UTC+00:00)

USA 308 - Pass Details

Date: 03 March 2021
Orbit: 568 x 576 km, 54.0° (Epoch: 20 April)

Event Time Altitude Azimuth Distance (km) Brightness Sun altitude
Rises 20:05:17 0° 293° (WNW) 2,777 7.8 -23.8°
Reaches altitude 10° 20:07:43 10° 303° (WNW) 1,877 6.5 -24.2°
Enters shadow 20:11:30 34° 5° (N) 949 4.0 -24.8°
